Weather History for KMFR - June, 2013

Change the Weather History Date:

Tuesday, June 25, 2013

  Actual Average Record
Temperature  
Mean Temperature 64 °F 69 °F  
Max Temperature 71 °F 85 °F 107 °F (1968)
Min Temperature 57 °F 54 °F 41 °F (1966)
Degree Days  
Heating Degree Days 1 1  
Month to date heating degree days 35 50  
Since 1 June heating degree days 35 50  
Since 1 July heating degree days 4037 4247  
Cooling Degree Days 0 5  
Month to date cooling degree days 85 78  
Year to date cooling degree days 120 116  
Since 1 June cooling degree days 85 78  
Growing Degree Days 14 (Base 50)    
Moisture  
Dew Point 54 °F    
Average Humidity 70    
Maximum Humidity 93    
Minimum Humidity 47    
Precipitation  
Precipitation 0.02 in 0.01 in 0.56 in (2012)
Month to date precipitation 0.21 0.56  
Year to date precipitation 3.95 9.40  
Snow  
Snow 0.00 in 0.00 in - ()
Month to date snowfall 0.0 0.0  
Since 1 July snowfall 1.7 4.1  
Snow Depth 0.00 in    
Sea Level Pressure  
Sea Level Pressure 29.79 in    
Wind  
Wind Speed 4 mph (NNW)    
Max Wind Speed 14 mph    
Max Gust Speed 17 mph    
Visibility 10 miles    
Events Rain    
T = Trace of Precipitation, MM = Missing Value Source: NWS Daily Summary

Daily Weather History Graph

Daily Weather History Graph

Search for Another Location

Airport or City:

Trip Planner

Search our weather history database for the weather conditions in past years. The results will help you decide how hot, cold, wet, or windy it might be!

Date:

Astronomy

Jun. 25, 2013 Rise Set
Actual Time 5:35 AM PDT 8:52 PM PDT
Civil Twilight 5:01 AM PDT 9:27 PM PDT
Nautical Twilight 4:16 AM PDT 10:12 PM PDT
Astronomical Twilight 3:21 AM PDT 11:06 PM PDT
Moon 10:37 PM PDT (6/25) 8:25 AM PDT (6/25)
Length of Visible Light 16h 26m
Length of Day
15h 16m
Waning Gibbous, 92% of the Moon is Illuminated
Jun 25
Waning Gibbous
Jun 29
Last Quarter
Jul 8
New
Jul 15
First Quarter
Jul 22
Full

Hourly Weather History & Observations

Time (PDT) Temp. Dew Point Humidity Pressure Visibility Wind Dir Wind Speed Gust Speed Precip Events Conditions
12:53 AM 57.9 °F 55.9 °F 93% 29.73 in 10.0 mi ENE 3.5 mph - 0.01 in   Scattered Clouds
1:53 AM 57.0 °F 55.0 °F 93% 29.72 in 10.0 mi NE 3.5 mph - N/A   Clear
2:53 AM 57.9 °F 55.9 °F 93% 29.73 in 10.0 mi Calm Calm - 0.00 in Rain Light Rain
3:34 AM 57.2 °F 55.4 °F 94% 29.74 in 10.0 mi Calm Calm - 0.00 in   Mostly Cloudy
3:53 AM 57.9 °F 55.9 °F 93% 29.73 in 10.0 mi Calm Calm - 0.00 in   Scattered Clouds
4:53 AM 57.0 °F 55.0 °F 93% 29.73 in 10.0 mi North 3.5 mph - N/A   Mostly Cloudy
5:02 AM 57.2 °F 55.4 °F 94% 29.74 in 10.0 mi North 3.5 mph - N/A   Scattered Clouds
5:53 AM 57.0 °F 55.9 °F 96% 29.73 in 9.0 mi NW 3.5 mph - 0.01 in Rain Light Rain
6:12 AM 57.2 °F 55.4 °F 94% 29.75 in 10.0 mi Calm Calm - 0.00 in   Mostly Cloudy
6:53 AM 57.9 °F 55.0 °F 90% 29.73 in 8.0 mi North 4.6 mph - 0.00 in Rain Light Rain
7:30 AM 57.2 °F 55.4 °F 94% 29.75 in 10.0 mi NNE 3.5 mph - 0.01 in   Mostly Cloudy
7:53 AM 59.0 °F 55.9 °F 90% 29.74 in 10.0 mi Calm Calm - 0.01 in   Overcast
8:53 AM 61.0 °F 55.9 °F 83% 29.76 in 10.0 mi Calm Calm - N/A   Mostly Cloudy
9:26 AM 62.6 °F 57.2 °F 82% 29.77 in 10.0 mi Calm Calm - N/A   Mostly Cloudy
9:53 AM 64.9 °F 55.9 °F 73% 29.75 in 10.0 mi Calm Calm - N/A   Mostly Cloudy
10:53 AM 66.0 °F 55.9 °F 70% 29.76 in 10.0 mi WNW 3.5 mph - N/A   Overcast
11:53 AM 68.0 °F 54.0 °F 61% 29.77 in 10.0 mi Calm Calm - 0.00 in   Overcast
12:53 PM 69.1 °F 53.1 °F 57% 29.79 in 10.0 mi WNW 10.4 mph - N/A   Overcast
1:53 PM 69.1 °F 51.1 °F 53% 29.80 in 10.0 mi NW 8.1 mph - N/A   Overcast
2:53 PM 70.0 °F 50.0 °F 49% 29.80 in 10.0 mi NW 11.5 mph - N/A   Overcast
3:53 PM 69.1 °F 48.9 °F 49% 29.81 in 10.0 mi NW 11.5 mph 16.1 mph N/A   Overcast
4:53 PM 66.9 °F 50.0 °F 54% 29.83 in 10.0 mi NW 10.4 mph - N/A   Overcast
5:53 PM 66.0 °F 51.1 °F 59% 29.85 in 10.0 mi NW 10.4 mph - N/A   Overcast
6:53 PM 64.0 °F 51.1 °F 63% 29.86 in 10.0 mi NW 10.4 mph - N/A   Overcast
7:53 PM 63.0 °F 52.0 °F 67% 29.88 in 10.0 mi NNW 5.8 mph - N/A   Overcast
8:53 PM 63.0 °F 52.0 °F 67% 29.88 in 10.0 mi NW 6.9 mph - N/A   Overcast
9:53 PM 62.1 °F 52.0 °F 70% 29.90 in 10.0 mi Calm Calm - N/A   Overcast
10:53 PM 61.0 °F 52.0 °F 72% 29.91 in 10.0 mi Calm Calm - N/A   Mostly Cloudy
11:53 PM 60.1 °F 52.0 °F 75% 29.90 in 10.0 mi Calm Calm - N/A   Overcast